Saguache, CO

12:39 AM MST on February 18, 2018 (GMT -0700)
Saguache

Weather History for K04V - August, 2013

Change the Weather History Date:

Wednesday, August 7, 2013

  Actual Average (KALS) Record (KALS)
Temperature  
Mean Temperature 57 °F -  
Max Temperature 66 °F 81 °F 90 °F (1977)
Min Temperature 48 °F 47 °F 37 °F (1950)
Degree Days  
Heating Degree Days 8    
Growing Degree Days 7 (Base 50)    
Moisture  
Dew Point 49 °F    
Average Humidity 80    
Maximum Humidity 94    
Minimum Humidity 52    
Precipitation  
Precipitation 0.53 in - - ()
Sea Level Pressure  
Sea Level Pressure 30.30 in    
Wind  
Wind Speed 5 mph (NW)    
Max Wind Speed 18 mph    
Max Gust Speed 24 mph    
Visibility 9 miles    
Events Thunderstorm    
Averages and records for this station are not official NWS values.
T = Trace of Precipitation, MM = Missing Value Source: NWS Daily Summary

Daily Weather History Graph

Daily Weather History Graph

Search for Another Location

Airport or City:

Trip Planner

Search our weather history database for the weather conditions in past years. The results will help you decide how hot, cold, wet, or windy it might be!

Date:

Astronomy

Aug. 07, 2013 Rise Set
Actual Time 6:12 AM MDT 8:07 PM MDT
Civil Twilight 5:44 AM MDT 8:35 PM MDT
Nautical Twilight 5:09 AM MDT 9:10 PM MDT
Astronomical Twilight 4:31 AM MDT 9:48 PM MDT
Moon 7:02 AM MDT (8/7) 8:18 PM MDT (8/7)
Length of Visible Light 14h 51m
Length of Day
13h 54m
New Moon, 1% of the Moon is Illuminated
Aug 7
New Moon
Aug 14
First Quarter
Aug 20
Full
Aug 28
Last Quarter
Sep 5
New

Hourly Weather History & Observations

Time (MDT) Temp. Dew Point Humidity Pressure Visibility Wind Dir Wind Speed Gust Speed Precip Events Conditions
12:13 AM 59.0 °F 44.6 °F 59% 30.34 in 10.0 mi NNW 9.2 mph - N/A   Overcast
12:33 AM 59.0 °F 44.6 °F 59% 30.34 in 10.0 mi NNW 6.9 mph - N/A   Overcast
12:52 AM 57.2 °F 46.4 °F 67% 30.34 in 10.0 mi North 8.1 mph - N/A   Overcast
1:13 AM 57.2 °F 46.4 °F 67% 30.33 in 10.0 mi NE 3.5 mph - N/A   Overcast
1:33 AM 57.2 °F 46.4 °F 67% 30.32 in 10.0 mi NE 3.5 mph - N/A   Overcast
1:53 AM 55.4 °F 46.4 °F 72% 30.31 in 10.0 mi WNW 4.6 mph - N/A   Mostly Cloudy
2:13 AM 55.4 °F 46.4 °F 72% 30.31 in 10.0 mi NW 3.5 mph - N/A   Overcast
2:33 AM 55.4 °F 46.4 °F 72% 30.30 in 10.0 mi Calm Calm - N/A   Mostly Cloudy
2:53 AM 55.4 °F 46.4 °F 72% 30.29 in 10.0 mi Calm Calm - N/A   Scattered Clouds
3:13 AM 55.4 °F 48.2 °F 77% 30.29 in 10.0 mi Calm Calm - N/A   Scattered Clouds
3:32 AM 53.6 °F 48.2 °F 82% 30.29 in 10.0 mi SW 3.5 mph - N/A   Scattered Clouds
3:53 AM 53.6 °F 48.2 °F 82% 30.29 in 10.0 mi Calm Calm - N/A   Clear
4:13 AM 51.8 °F 48.2 °F 88% 30.29 in 10.0 mi Calm Calm - N/A   Scattered Clouds
4:33 AM 51.8 °F 46.4 °F 82% 30.30 in 10.0 mi Calm Calm - N/A   Mostly Cloudy
4:53 AM 51.8 °F 48.2 °F 88% 30.30 in 10.0 mi North 4.6 mph - N/A   Overcast
5:13 AM 53.6 °F 46.4 °F 77% 30.30 in 10.0 mi Calm Calm - N/A   Overcast
5:33 AM 53.6 °F 48.2 °F 82% 30.29 in 10.0 mi NW 3.5 mph - N/A   Overcast
5:53 AM 51.8 °F 48.2 °F 88% 30.31 in 10.0 mi Calm Calm - N/A   Overcast
6:12 AM 51.8 °F 48.2 °F 88% 30.31 in 10.0 mi Calm Calm - N/A   Overcast
6:33 AM 51.8 °F 48.2 °F 88% 30.31 in 10.0 mi SE 3.5 mph - N/A   Overcast
6:53 AM 51.8 °F 48.2 °F 88% 30.32 in 10.0 mi Calm Calm - N/A   Overcast
7:12 AM 53.6 °F 50.0 °F 88% 30.32 in 10.0 mi Calm Calm - N/A   Overcast
7:32 AM 53.6 °F 50.0 °F 88% 30.32 in 10.0 mi Calm Calm - N/A   Overcast
7:52 AM 53.6 °F 50.0 °F 88% 30.32 in 10.0 mi Calm Calm - N/A   Overcast
8:13 AM 53.6 °F 50.0 °F 88% 30.32 in 10.0 mi Calm Calm - N/A   Overcast
8:33 AM 53.6 °F 50.0 °F 88% 30.33 in 10.0 mi Calm Calm - N/A   Overcast
8:53 AM 55.4 °F 50.0 °F 82% 30.33 in 10.0 mi Calm Calm - N/A   Overcast
9:13 AM 55.4 °F 50.0 °F 82% 30.33 in 10.0 mi NW 3.5 mph - N/A   Overcast
9:32 AM 57.2 °F 48.2 °F 72% 30.33 in 10.0 mi Calm Calm - N/A   Overcast
9:53 AM 57.2 °F 48.2 °F 72% 30.33 in 10.0 mi Calm Calm - N/A   Overcast
10:13 AM 57.2 °F 48.2 °F 72% 30.33 in 10.0 mi Calm Calm - N/A   Overcast
10:33 AM 59.0 °F 48.2 °F 67% 30.33 in 10.0 mi Calm Calm - N/A   Overcast
10:53 AM 57.2 °F 48.2 °F 72% 30.34 in 7.0 mi WSW 4.6 mph - N/A   Overcast
11:13 AM 57.2 °F 48.2 °F 72% 30.34 in 10.0 mi Calm Calm - N/A Thunderstorm Overcast
11:33 AM 57.2 °F 50.0 °F 77% 30.33 in 4.0 mi Calm Calm - N/A   Overcast
11:53 AM 57.2 °F 50.0 °F 77% 30.33 in 10.0 mi Calm Calm - N/A   Overcast
12:13 PM 60.8 °F 50.0 °F 68% 30.31 in 10.0 mi ENE 3.5 mph - N/A   Mostly Cloudy
12:33 PM 62.6 °F 48.2 °F 59% 30.31 in 10.0 mi Calm Calm - N/A Thunderstorm Mostly Cloudy
12:53 PM 64.4 °F 46.4 °F 52% 30.29 in 10.0 mi Calm Calm - N/A Thunderstorm Scattered Clouds
1:13 PM 66.2 °F 48.2 °F 52% 30.29 in 10.0 mi SW 5.8 mph - N/A   Scattered Clouds
1:33 PM 66.2 °F 48.2 °F 52% 30.28 in 10.0 mi SW 3.5 mph - N/A Thunderstorm Thunderstorm
1:53 PM 66.2 °F 48.2 °F 52% 30.28 in 10.0 mi WNW 15.0 mph 18.4 mph N/A Thunderstorm Mostly Cloudy
2:12 PM 57.2 °F 51.8 °F 82% 30.29 in 2.0 mi NW 18.4 mph 24.2 mph 0.09 in Thunderstorm Thunderstorm
2:33 PM 55.4 °F 53.6 °F 94% 30.31 in 2.5 mi NW 17.3 mph 23.0 mph 0.19 in Thunderstorm Overcast
2:53 PM 53.6 °F 51.8 °F 94% 30.30 in 1.0 mi North 6.9 mph - 0.30 in   Overcast
3:13 PM 53.6 °F 50.0 °F 88% 30.30 in 4.0 mi North 8.1 mph - 0.01 in   Overcast
3:33 PM 55.4 °F 50.0 °F 82% 30.31 in 10.0 mi WNW 9.2 mph - 0.01 in Thunderstorm Overcast
3:52 PM 53.6 °F 51.8 °F 94% 30.30 in 2.0 mi South 4.6 mph - 0.03 in   Overcast
4:13 PM 53.6 °F 50.0 °F 88% 30.28 in 1.5 mi NNW 3.5 mph - 0.06 in   Overcast
4:33 PM 51.8 °F 50.0 °F 94% 30.26 in 1.5 mi North 11.5 mph - 0.15 in   Overcast
4:53 PM 51.8 °F 48.2 °F 88% 30.21 in 3.0 mi NNE 17.3 mph - 0.20 in   Overcast
5:13 PM 51.8 °F 48.2 °F 88% 30.26 in 10.0 mi North 10.4 mph 16.1 mph N/A   Overcast
5:33 PM 53.6 °F 48.2 °F 82% 30.34 in 10.0 mi NW 10.4 mph - N/A   Mostly Cloudy
5:53 PM 53.6 °F 50.0 °F 88% 30.29 in 10.0 mi WNW 9.2 mph - N/A   Mostly Cloudy
6:13 PM 55.4 °F 50.0 °F 82% 30.29 in 10.0 mi NW 9.2 mph - N/A   Overcast
6:33 PM 55.4 °F 50.0 °F 82% 30.29 in 10.0 mi NW 9.2 mph - N/A   Overcast
6:52 PM 53.6 °F 50.0 °F 88% 30.28 in 10.0 mi NNW 9.2 mph - N/A   Overcast
7:13 PM 55.4 °F 50.0 °F 82% 30.27 in 10.0 mi NNW 6.9 mph - N/A   Mostly Cloudy
7:33 PM 55.4 °F 50.0 °F 82% 30.26 in 10.0 mi NNW 5.8 mph - N/A   Mostly Cloudy
7:53 PM 53.6 °F 50.0 °F 88% 30.26 in 10.0 mi NW 5.8 mph - N/A   Scattered Clouds
8:13 PM 53.6 °F 48.2 °F 82% 30.27 in 10.0 mi WNW 8.1 mph - N/A   Scattered Clouds
8:33 PM 53.6 °F 48.2 °F 82% 30.29 in 10.0 mi WNW 5.8 mph - N/A   Clear
8:53 PM 51.8 °F 48.2 °F 88% 30.29 in 10.0 mi WNW 5.8 mph - N/A   Clear
9:13 PM 51.8 °F 50.0 °F 94% 30.29 in 10.0 mi West 3.5 mph - N/A   Scattered Clouds
9:33 PM 51.8 °F 50.0 °F 94% 30.29 in 10.0 mi Calm Calm - N/A   Scattered Clouds
9:52 PM 50.0 °F 48.2 °F 94% 30.29 in 10.0 mi Calm Calm - N/A   Clear
10:12 PM 50.0 °F 48.2 °F 94% 30.29 in 10.0 mi NNE 5.8 mph - N/A   Clear
10:33 PM 50.0 °F 46.4 °F 87% 30.29 in 10.0 mi NNE 4.6 mph - N/A   Clear
10:53 PM 48.2 °F 46.4 °F 93% 30.28 in 10.0 mi North 8.1 mph - N/A   Clear
11:12 PM 48.2 °F 46.4 °F 93% 30.28 in 10.0 mi NW 3.5 mph - N/A   Clear
11:33 PM 48.2 °F 46.4 °F 93% 30.29 in 10.0 mi NW 5.8 mph - N/A   Clear
11:53 PM 48.2 °F 46.4 °F 93% 30.29 in 10.0 mi WNW 5.8 mph - N/A   Clear